Location: Unspecified
(41.5000°N, 0.0000°E)
Time: 23:27:28
(UTC+00:00)

Altair - Visible Passes

Search period start: 18 June 2019 00:00
Search period end: 28 June 2019 00:00
Orbit: 1501 x 1683 km, 47.2° (Epoch: 18 June)

Date Brightness Start Highest point End Pass type
(mag) Time Alt. Az. Time Alt. Az. Time Alt. Az.
18 Jun 7.9 00:42:38 10° WNW 00:52:33 67° N 01:02:42 10° E visible
18 Jun 7.6 02:47:46 10° WNW 02:57:48 73° SW 03:07:55 10° SE visible
18 Jun 7.6 20:07:17 10° SW 20:16:33 61° SE 20:26:13 10° ENE visible
18 Jun 7.8 22:11:42 10° W 22:21:24 71° NNW 22:31:29 10° ENE visible
19 Jun 8.0 00:17:24 10° WNW 00:27:16 66° N 00:37:24 10° E visible
19 Jun 7.6 02:22:33 10° WNW 02:32:37 77° SSW 02:42:46 10° SE visible
19 Jun 7.8 21:46:28 10° WSW 21:56:09 74° NNW 22:06:14 10° ENE visible
19 Jun 8.0 23:52:10 10° WNW 00:01:59 65° N 00:12:05 10° E visible
20 Jun 7.6 01:57:21 10° WNW 02:07:25 81° SSW 02:17:35 10° SE visible
20 Jun 7.8 21:21:15 10° WSW 21:30:54 76° NNW 21:40:58 10° ENE visible
20 Jun 8.0 23:26:56 10° WNW 23:36:42 64° N 23:46:46 10° E visible
21 Jun 7.6 01:32:09 10° WNW 01:42:11 85° SSW 01:52:24 10° ESE visible
21 Jun 8.1 03:37:36 10° WNW 03:46:15 34° SW 03:54:57 10° SSE visible
21 Jun 7.7 20:56:04 10° WSW 21:05:40 79° NNW 21:15:42 10° ENE visible
21 Jun 8.0 23:01:41 10° WNW 23:11:25 63° N 23:21:27 10° E visible
22 Jun 7.6 01:06:57 10° WNW 01:16:58 89° SSW 01:27:12 10° ESE visible
22 Jun 8.0 03:12:17 10° WNW 03:21:09 37° SW 03:30:05 10° SSE visible
22 Jun 7.7 20:30:53 10° WSW 20:40:27 81° NNW 20:50:27 10° ENE visible
22 Jun 8.0 22:36:27 10° W 22:46:08 63° N 22:56:09 10° E visible
23 Jun 7.6 00:41:45 10° WNW 00:51:45 88° NNE 01:01:58 10° ESE visible
23 Jun 7.9 02:46:59 10° WNW 02:56:02 40° SW 03:05:11 10° SSE visible
23 Jun 7.7 20:05:42 10° WSW 20:15:14 85° NNW 20:25:13 10° ENE visible
23 Jun 8.0 22:11:14 10° W 22:20:51 63° N 22:30:50 10° E visible
24 Jun 7.6 00:16:33 10° WNW 00:26:31 84° NNE 00:36:44 10° ESE visible
24 Jun 7.9 02:21:42 10° WNW 02:30:55 43° SW 02:40:15 10° SSE visible
24 Jun 8.0 21:45:59 10° W 21:55:34 63° N 22:05:32 10° E visible
24 Jun 7.6 23:51:22 10° WNW 00:01:17 81° NNE 00:11:28 10° ESE visible
25 Jun 7.8 01:56:27 10° WNW 02:05:48 47° SW 02:15:17 10° SSE visible
25 Jun 8.0 21:20:45 10° W 21:30:18 63° N 21:40:14 10° ENE visible
25 Jun 7.7 23:26:10 10° WNW 23:36:03 79° NNE 23:46:13 10° ESE visible
26 Jun 7.7 01:31:12 10° WNW 01:40:40 50° SW 01:50:17 10° SSE visible
26 Jun 8.8 03:39:43 10° W 03:43:45 13° WSW 03:47:47 10° SW visible
26 Jun 8.0 20:55:31 10° W 21:05:01 64° N 21:14:55 10° ENE visible
26 Jun 7.7 23:00:58 10° WNW 23:10:48 76° NNE 23:20:57 10° ESE visible
27 Jun 7.6 01:05:58 10° WNW 01:15:31 54° SW 01:25:15 10° SSE visible
27 Jun 8.8 03:13:43 10° W 03:18:42 15° WSW 03:23:45 10° SSW visible
27 Jun 8.0 20:30:17 10° W 20:39:45 64° N 20:49:38 10° ENE visible
27 Jun 7.7 22:35:46 10° WNW 22:45:33 73° NNE 22:55:39 10° ESE visible
